JAT811 SKCL-SCFA

Flight info

Callsign JAT811
Flight time N/A
Altitude 33000
Route CLO1D CLO DCT BOKAN UM795 LOBOT UM795 ILROL/N0458F350 UM795 JCL UL550 XONOG UQ803 ENLUS ENLUS5A
Aircraft A21N/M-SDE3FGHIRWY/LB1

Departure

Time 2026-04-29 17:24
Airport Alfonso Bonilla Aragon International Airport (SKCL)

Arrival

Time N/A
Airport Andrés Sabella Gálvez International Airport (SCFA)
Time Latitude Longitude Altitude Speed Heading
2026-04-29 16:55 3.53602 -76.38616 3166 ft 0 kts 279°
2026-04-29 17:15 3.53600 -76.38606 3166 ft 2 kts 280°
2026-04-29 17:15 3.53598 -76.38592 3166 ft 2 kts 279°
2026-04-29 17:16 3.53595 -76.38577 3165 ft 2 kts 279°
2026-04-29 17:16 3.53592 -76.38562 3166 ft 2 kts 279°
2026-04-29 17:16 3.53591 -76.38552 3166 ft 2 kts 274°
2026-04-29 17:16 3.53595 -76.38538 3166 ft 2 kts 231°
2026-04-29 17:17 3.53607 -76.38529 3166 ft 1 kts 197°
2026-04-29 17:17 3.53613 -76.38528 3166 ft 1 kts 186°
2026-04-29 17:17 3.53616 -76.38527 3166 ft 0 kts 189°
2026-04-29 17:20 3.53615 -76.38528 3166 ft 1 kts 189°
2026-04-29 17:20 3.53572 -76.38535 3165 ft 11 kts 188°
2026-04-29 17:21 3.53478 -76.38549 3165 ft 13 kts 189°
2026-04-29 17:21 3.53383 -76.38554 3165 ft 13 kts 148°
2026-04-29 17:21 3.53328 -76.38509 3165 ft 8 kts 182°
2026-04-29 17:21 3.53262 -76.38516 3164 ft 9 kts 190°
2026-04-29 17:22 3.53191 -76.38528 3164 ft 11 kts 190°
2026-04-29 17:22 3.53107 -76.38543 3164 ft 12 kts 190°
2026-04-29 17:22 3.53014 -76.38558 3163 ft 14 kts 184°
2026-04-29 17:22 3.52950 -76.38496 3163 ft 14 kts 85°
2026-04-29 17:23 3.53007 -76.38412 3164 ft 14 kts 51°
2026-04-29 17:23 3.53109 -76.38378 3164 ft 22 kts 11°
2026-04-29 17:23 3.53505 -76.38308 3166 ft 92 kts
2026-04-29 17:23 3.54370 -76.38157 3172 ft 153 kts
2026-04-29 17:24 3.55580 -76.37950 3273 ft 192 kts 10°
2026-04-29 17:24 3.56886 -76.37708 3896 ft 192 kts 11°
2026-04-29 17:24 3.58199 -76.37470 4641 ft 190 kts
2026-04-29 17:24 3.59501 -76.37248 5198 ft 191 kts 10°
2026-04-29 17:25 3.60846 -76.37009 5456 ft 204 kts 11°
2026-04-29 17:25 3.62304 -76.36748 5748 ft 215 kts 11°
2026-04-29 17:25 3.63834 -76.36475 5994 ft 231 kts 10°
2026-04-29 17:25 3.65461 -76.36186 6289 ft 246 kts 11°
2026-04-29 17:26 3.67211 -76.35875 6572 ft 262 kts 10°
2026-04-29 17:26 3.69049 -76.35550 6994 ft 271 kts 11°
2026-04-29 17:26 3.70937 -76.35372 7579 ft 274 kts 353°
2026-04-29 17:26 3.72694 -76.36098 8172 ft 277 kts 320°
2026-04-29 17:27 3.73774 -76.37668 8756 ft 279 kts 286°
2026-04-29 17:27 3.73835 -76.39578 9264 ft 283 kts 253°
2026-04-29 17:27 3.72825 -76.41256 9748 ft 284 kts 219°
2026-04-29 17:27 3.71097 -76.42133 10212 ft 284 kts 188°
2026-04-29 17:28 3.69131 -76.42019 10703 ft 282 kts 164°
2026-04-29 17:28 3.67233 -76.41529 11183 ft 287 kts 164°
2026-04-29 17:28 3.65257 -76.41058 11674 ft 291 kts 166°
2026-04-29 17:28 3.63256 -76.40734 12202 ft 294 kts 173°
2026-04-29 17:29 3.61192 -76.40640 12577 ft 303 kts 177°
2026-04-29 17:29 3.59009 -76.40635 12807 ft 317 kts 178°
2026-04-29 17:29 3.56752 -76.40648 13031 ft 330 kts 179°
2026-04-29 17:29 3.55207 -76.40655 13178 ft 339 kts 178°
2026-04-29 17:30 3.51970 -76.40659 13466 ft 356 kts 178°
2026-04-29 17:30 3.49446 -76.40657 13714 ft 367 kts 178°
2026-04-29 17:30 3.46868 -76.40656 14117 ft 372 kts 178°
2026-04-29 17:30 3.44256 -76.40656 14587 ft 374 kts 178°
2026-04-29 17:31 3.41641 -76.40771 15052 ft 378 kts 186°
2026-04-29 17:31 3.39082 -76.41393 15517 ft 382 kts 198°
2026-04-29 17:31 3.36658 -76.42527 16031 ft 385 kts 207°
2026-04-29 17:31 3.34300 -76.43861 16435 ft 389 kts 208°
2026-04-29 17:32 3.31951 -76.45224 16839 ft 391 kts 208°
2026-04-29 17:32 3.29610 -76.46578 17323 ft 394 kts 208°
2026-04-29 17:32 3.27209 -76.47962 17767 ft 396 kts 208°
2026-04-29 17:32 3.24822 -76.49333 18180 ft 399 kts 208°
2026-04-29 17:33 3.22397 -76.50719 18579 ft 401 kts 208°
2026-04-29 17:33 3.19961 -76.52110 19026 ft 403 kts 208°
2026-04-29 17:33 3.17504 -76.53513 19399 ft 406 kts 208°
2026-04-29 17:33 3.15052 -76.54911 19802 ft 408 kts 208°
2026-04-29 17:34 3.12554 -76.56338 20188 ft 411 kts 207°
2026-04-29 17:34 3.10066 -76.57753 20547 ft 414 kts 207°
2026-04-29 17:34 3.07554 -76.59180 20907 ft 416 kts 207°
2026-04-29 17:34 3.05011 -76.60628 21287 ft 417 kts 207°
2026-04-29 17:35 3.00800 -76.63027 21864 ft 422 kts 207°
2026-04-29 17:35 2.97355 -76.64986 22307 ft 425 kts 208°
2026-04-29 17:35 2.94774 -76.66464 22631 ft 428 kts 208°
2026-04-29 17:36 2.92183 -76.67954 22969 ft 429 kts 208°
2026-04-29 17:36 2.89603 -76.69435 23304 ft 431 kts 208°
2026-04-29 17:36 2.86959 -76.70943 23625 ft 433 kts 208°
2026-04-29 17:36 2.84361 -76.72419 23941 ft 435 kts 208°
2026-04-29 17:37 2.81713 -76.73923 24239 ft 438 kts 208°
2026-04-29 17:37 2.79029 -76.75448 24541 ft 440 kts 208°
2026-04-29 17:37 2.76392 -76.76949 24833 ft 441 kts 208°
2026-04-29 17:37 2.73682 -76.78490 25127 ft 443 kts 208°
2026-04-29 17:38 2.70999 -76.80017 25406 ft 445 kts 208°
2026-04-29 17:38 2.68311 -76.81547 25669 ft 447 kts 208°
2026-04-29 17:38 2.65596 -76.83092 25935 ft 449 kts 208°
2026-04-29 17:38 2.62841 -76.84659 26193 ft 451 kts 208°
2026-04-29 17:39 2.60131 -76.86203 26453 ft 453 kts 208°
2026-04-29 17:39 2.57376 -76.87771 26695 ft 455 kts 208°
2026-04-29 17:39 2.54618 -76.89340 26956 ft 456 kts 208°
2026-04-29 17:39 2.51858 -76.90910 27185 ft 458 kts 208°
2026-04-29 17:40 2.49060 -76.92502 27419 ft 460 kts 208°
2026-04-29 17:40 2.46276 -76.94086 27649 ft 461 kts 208°
2026-04-29 17:40 2.43484 -76.95674 27882 ft 463 kts 208°
2026-04-29 17:40 2.40677 -76.97272 28073 ft 465 kts 208°
2026-04-29 17:41 2.37862 -76.98872 28287 ft 466 kts 208°
2026-04-29 17:41 2.35008 -77.00496 28510 ft 468 kts 208°
2026-04-29 17:41 2.32173 -77.02107 28710 ft 469 kts 208°
2026-04-29 17:41 2.29321 -77.03730 28916 ft 471 kts 208°
2026-04-29 17:42 2.26500 -77.05334 29133 ft 471 kts 208°
2026-04-29 17:42 2.23621 -77.06972 29414 ft 471 kts 208°
2026-04-29 17:42 2.20782 -77.08585 29731 ft 469 kts 208°
2026-04-29 17:42 2.17949 -77.10197 30012 ft 469 kts 209°
2026-04-29 17:43 2.15091 -77.11822 30290 ft 468 kts 209°
2026-04-29 17:43 2.12283 -77.13418 30573 ft 467 kts 209°
2026-04-29 17:43 2.09464 -77.15021 30848 ft 466 kts 209°
2026-04-29 17:43 2.06633 -77.16630 31130 ft 465 kts 209°
2026-04-29 17:44 2.03830 -77.18224 31409 ft 464 kts 209°
2026-04-29 17:44 2.01008 -77.19830 31611 ft 465 kts 209°
2026-04-29 17:44 1.98189 -77.21432 31756 ft 467 kts 209°
2026-04-29 17:44 1.95358 -77.23041 31902 ft 468 kts 209°
2026-04-29 17:45 1.92527 -77.24650 32077 ft 469 kts 209°
2026-04-29 17:45 1.89679 -77.26268 32256 ft 470 kts 209°
2026-04-29 17:45 1.86833 -77.27879 32421 ft 471 kts 210°
2026-04-29 17:45 1.83946 -77.29511 32591 ft 471 kts 209°
2026-04-29 17:46 1.81107 -77.31117 32777 ft 472 kts 210°
2026-04-29 17:46 1.78243 -77.32740 32972 ft 472 kts 210°
2026-04-29 17:46 1.75348 -77.34383 32991 ft 472 kts 210°
2026-04-29 17:47 1.69664 -77.37612 33044 ft 471 kts 210°
2026-04-29 17:47 1.63941 -77.40864 33079 ft 471 kts 210°
2026-04-29 17:48 1.58241 -77.44102 33097 ft 472 kts 210°
2026-04-29 17:48 1.52522 -77.47353 33106 ft 472 kts 210°
2026-04-29 17:49 1.46819 -77.50594 33130 ft 471 kts 210°
2026-04-29 17:49 1.41103 -77.53841 33132 ft 471 kts 210°
2026-04-29 17:50 1.35371 -77.57097 33176 ft 471 kts 210°
2026-04-29 17:50 1.29681 -77.60330 33228 ft 470 kts 210°
2026-04-29 17:51 1.23990 -77.63563 33266 ft 470 kts 210°
2026-04-29 17:51 1.18287 -77.66813 33307 ft 470 kts 210°
2026-04-29 17:52 1.12609 -77.70067 33366 ft 470 kts 210°
2026-04-29 17:52 1.06940 -77.73292 33424 ft 469 kts 210°
2026-04-29 17:53 1.01258 -77.76517 33446 ft 469 kts 210°
2026-04-29 17:53 0.95582 -77.79737 33458 ft 468 kts 210°
2026-04-29 17:54 0.89891 -77.82966 33454 ft 468 kts 210°
2026-04-29 17:54 0.83917 -77.85648 33464 ft 469 kts 199°
2026-04-29 17:55 0.77585 -77.87195 33475 ft 469 kts 189°
2026-04-29 17:55 0.71020 -77.87559 33485 ft 470 kts 178°
2026-04-29 17:56 0.64486 -77.87197 33502 ft 470 kts 176°
2026-04-29 17:56 0.57915 -77.86782 33550 ft 470 kts 176°
2026-04-29 17:57 0.51373 -77.86385 33553 ft 470 kts 177°
2026-04-29 17:57 0.44847 -77.85998 33568 ft 470 kts 177°
2026-04-29 17:58 0.38288 -77.85611 33583 ft 470 kts 176°
2026-04-29 17:58 0.31766 -77.85228 33595 ft 469 kts 176°
2026-04-29 17:59 0.25214 -77.84841 33598 ft 469 kts 176°
2026-04-29 17:59 0.18684 -77.84454 33599 ft 469 kts 177°
2026-04-29 18:00 0.12165 -77.84069 33605 ft 469 kts 177°
2026-04-29 18:00 0.05611 -77.83684 33603 ft 469 kts 177°
2026-04-29 18:01 -0.00954 -77.83298 33610 ft 469 kts 177°
2026-04-29 18:01 -0.07458 -77.82915 33597 ft 469 kts 176°
2026-04-29 18:02 -0.14027 -77.82526 33565 ft 469 kts 177°
2026-04-29 18:02 -0.20559 -77.82140 33534 ft 469 kts 177°
2026-04-29 18:03 -0.27094 -77.81753 33468 ft 469 kts 177°
2026-04-29 18:03 -0.33599 -77.81367 33478 ft 469 kts 177°
2026-04-29 18:04 -0.40144 -77.80975 33486 ft 469 kts 177°
2026-04-29 18:04 -0.46657 -77.80592 33499 ft 469 kts 177°
2026-04-29 18:05 -0.53188 -77.80225 33489 ft 469 kts 177°
2026-04-29 18:05 -0.59758 -77.79850 33431 ft 469 kts 177°
2026-04-29 18:06 -0.66267 -77.79475 33344 ft 469 kts 176°
2026-04-29 18:06 -0.72837 -77.79092 33270 ft 469 kts 177°
2026-04-29 18:07 -0.79371 -77.78713 33197 ft 470 kts 177°
2026-04-29 18:07 -0.85925 -77.78332 33152 ft 470 kts 176°
2026-04-29 18:08 -0.92468 -77.77952 33098 ft 470 kts 176°
2026-04-29 18:08 -0.98996 -77.77570 33067 ft 470 kts 176°
2026-04-29 18:09 -1.05540 -77.77189 33058 ft 470 kts 176°
2026-04-29 18:09 -1.12125 -77.76804 33046 ft 470 kts 177°
2026-04-29 18:10 -1.18686 -77.76422 33035 ft 470 kts 177°
2026-04-29 18:10 -1.25240 -77.76043 33030 ft 470 kts 176°
2026-04-29 18:11 -1.31774 -77.75664 33023 ft 470 kts 176°
2026-04-29 18:11 -1.38360 -77.75279 33022 ft 470 kts 176°
2026-04-29 18:12 -1.44894 -77.74899 33022 ft 470 kts 176°
2026-04-29 18:12 -1.51457 -77.74515 33032 ft 470 kts 177°
2026-04-29 18:13 -1.57987 -77.74135 33026 ft 470 kts 176°
2026-04-29 18:13 -1.64518 -77.73753 33010 ft 470 kts 177°
2026-04-29 18:14 -1.71056 -77.73372 33015 ft 470 kts 177°
2026-04-29 18:14 -1.77605 -77.72991 33003 ft 469 kts 177°
2026-04-29 18:15 -1.84132 -77.72611 33008 ft 469 kts 177°
2026-04-29 18:15 -1.90691 -77.72228 33002 ft 469 kts 177°
2026-04-29 18:16 -1.97212 -77.71847 32994 ft 469 kts 177°
2026-04-29 18:16 -2.03768 -77.71465 32987 ft 469 kts 177°
2026-04-29 18:17 -2.10297 -77.71085 32994 ft 469 kts 177°
2026-04-29 18:17 -2.16848 -77.70704 32990 ft 469 kts 177°
2026-04-29 18:18 -2.23399 -77.70322 32992 ft 469 kts 177°
2026-04-29 18:18 -2.29926 -77.69941 32985 ft 469 kts 177°
2026-04-29 18:19 -2.36452 -77.69559 32977 ft 469 kts 177°
2026-04-29 18:19 -2.42972 -77.69179 32972 ft 469 kts 177°
2026-04-29 18:20 -2.49494 -77.68797 32956 ft 469 kts 177°
2026-04-29 18:20 -2.56049 -77.68413 32949 ft 469 kts 177°
2026-04-29 18:21 -2.62562 -77.68032 32940 ft 469 kts 177°
2026-04-29 18:21 -2.69083 -77.67650 32939 ft 469 kts 177°
2026-04-29 18:22 -2.75632 -77.67265 32928 ft 469 kts 177°
2026-04-29 18:22 -2.82155 -77.66878 32927 ft 469 kts 177°
2026-04-29 18:23 -2.88687 -77.66489 32930 ft 469 kts 177°
2026-04-29 18:23 -2.95232 -77.66110 32930 ft 469 kts 177°
2026-04-29 18:24 -3.01728 -77.65812 32930 ft 468 kts 178°
2026-04-29 18:24 -3.08274 -77.65519 32931 ft 468 kts 178°
2026-04-29 18:25 -3.14826 -77.65215 32931 ft 468 kts 178°
2026-04-29 18:25 -3.21375 -77.64909 32930 ft 469 kts 178°
2026-04-29 18:26 -3.27874 -77.64602 32934 ft 468 kts 178°
2026-04-29 18:26 -3.34419 -77.64291 32937 ft 468 kts 178°
2026-04-29 18:27 -3.40917 -77.63983 32935 ft 468 kts 178°
2026-04-29 18:27 -3.47481 -77.63672 32931 ft 468 kts 178°
2026-04-29 18:28 -3.53995 -77.63363 32928 ft 468 kts 178°
2026-04-29 18:28 -3.60479 -77.63055 32927 ft 468 kts 178°
2026-04-29 18:29 -3.67024 -77.62743 32920 ft 468 kts 178°
2026-04-29 18:29 -3.73547 -77.62434 32913 ft 468 kts 178°
2026-04-29 18:30 -3.80063 -77.62126 32914 ft 468 kts 178°
2026-04-29 18:30 -3.86586 -77.61816 32915 ft 468 kts 178°
2026-04-29 18:31 -3.93108 -77.61507 32923 ft 467 kts 178°
2026-04-29 18:31 -3.99623 -77.61198 32926 ft 467 kts 178°
2026-04-29 18:32 -4.06100 -77.60889 32934 ft 467 kts 178°
2026-04-29 18:32 -4.15912 -77.60424 32935 ft 467 kts 178°
2026-04-29 18:33 -4.21328 -77.60168 32933 ft 467 kts 178°